FW3227 Weather Reports


Display with metric or nautical units.
time (UTC)temp
F
wind
direction
speed
MPH
gust
MPH
rain 1hr
in
rain 24hr
in
rain mn
in
humidity
%
barometer
mb
20260901080540 57 238 0.0 0.0 0.00 0.01 0.00 85 1009.0
20260901080050 57 238 0.0 0.0 0.00 0.01 0.00 84 1009.0
20260901075539 58 238 0.0 0.0 0.00 0.01 0.00 85 1009.1
20260901075039 58 238 0.0 0.0 0.00 0.01 0.00 84 1009.1
20260901074543 58 238 0.0 0.0 0.00 0.01 0.00 85 1009.2
20260901074041 58 238 0.0 0.0 0.00 0.01 0.00 85 1009.1
20260901073538 58 238 0.0 0.0 0.00 0.01 0.00 85 1009.1
20260901073046 58 238 0.0 0.0 0.00 0.01 0.00 85 1009.0
20260901072538 58 238 0.0 0.0 0.00 0.01 0.00 84 1009.0
20260901072041 58 238 0.0 0.0 0.00 0.01 0.00 84 1009.2
20260901071538 58 238 0.0 0.0 0.00 0.01 0.00 84 1009.2
20260901071036 58 238 0.0 0.0 0.00 0.01 0.00 83 1009.2
20260901070538 58 238 0.0 0.0 0.00 0.01 0.00 83 1009.2
20260901070035 58 238 0.0 0.0 0.00 0.01 0.00 82 1009.2
20260901065534 58 238 0.0 0.0 0.00 0.01 0.00 82 1009.1
20260901065034 59 238 0.0 0.0 0.00 0.01 0.00 82 1009.0
20260901064536 59 238 0.0 0.0 0.00 0.01 0.00 82 1009.0
20260901064033 59 238 0.0 0.0 0.00 0.01 0.00 82 1008.9
20260901063632 59 238 0.0 0.0 0.00 0.01 0.00 82 1009.0
20260901063033 59 238 0.0 0.0 0.00 0.01 0.00 82 1009.0
20260901062530 59 238 0.0 0.0 0.00 0.01 0.00 81 1009.1
20260901062030 59 238 0.0 0.0 0.00 0.01 0.00 81 1009.0
20260901061530 59 238 0.0 0.0 0.00 0.01 0.00 81 1008.9
20260901061029 60 238 0.0 0.0 0.00 0.01 0.00 80 1008.9
20260901060529 60 238 0.0 0.0 0.00 0.01 0.00 80 1009.0
20260901060037 60 238 0.0 0.0 0.00 0.01 0.00 80 1009.0
20260901055526 60 238 0.0 0.0 0.00 0.01 0.01 80 1009.0
20260901055026 60 238 0.0 0.0 0.00 0.01 0.01 80 1009.5
20260901054526 60 238 0.0 0.0 0.00 0.01 0.01 80 1009.7
20260901054027 60 238 0.0 0.0 0.00 0.01 0.01 80 1009.7
20260901053526 60 238 0.0 0.0 0.00 0.01 0.01 80 1009.6
20260901053028 60 238 0.0 0.0 0.00 0.01 0.01 80 1009.6
20260901052525 60 238 0.0 0.0 0.00 0.01 0.01 81 1009.7
20260901052025 60 238 0.0 0.0 0.00 0.01 0.01 81 1009.7
20260901051526 60 238 0.0 0.0 0.00 0.01 0.01 81 1009.7
20260901051025 60 238 0.0 0.0 0.00 0.01 0.01 82 1009.5
20260901050525 60 238 0.0 0.0 0.00 0.01 0.01 81 1009.2
20260901050025 60 238 0.0 0.0 0.00 0.01 0.01 82 1009.0
20260901045524 60 238 0.0 0.0 0.00 0.01 0.01 82 1009.2
20260901045024 60 238 0.0 0.0 0.00 0.01 0.01 82 1009.2
20260901044524 60 238 0.0 0.0 0.00 0.01 0.01 82 1009.1
20260901044024 60 238 0.0 0.0 0.00 0.01 0.01 82 1008.9
20260901043527 60 238 0.0 0.0 0.00 0.01 0.01 81 1008.7
20260901043024 60 238 0.0 0.0 0.00 0.01 0.01 80 1008.6
20260901042523 60 238 0.0 0.0 0.00 0.01 0.01 80 1008.7
20260901042023 61 238 0.0 0.0 0.00 0.01 0.01 81 1008.6
20260901041524 61 238 0.0 0.0 0.00 0.01 0.01 80 1008.5
20260901041024 61 238 0.0 0.0 0.00 0.01 0.01 80 1008.6
20260901040523 61 238 0.0 0.0 0.00 0.01 0.01 80 1008.7
20260901040023 61 238 0.0 0.0 0.00 0.01 0.01 80 1008.7
20260901035523 61 238 0.0 0.0 0.00 0.01 0.01 80 1008.8
20260901035024 62 238 0.0 0.0 0.01 0.01 0.01 80 1009.0
20260901034523 62 238 0.0 0.0 0.01 0.01 0.01 80 1009.2
20260901034021 62 238 0.0 0.0 0.01 0.01 0.01 79 1009.3
20260901033524 62 238 0.0 0.0 0.01 0.01 0.01 79 1009.3
20260901033021 62 238 0.0 0.0 0.01 0.01 0.01 79 1009.2
20260901032521 63 238 0.0 0.0 0.01 0.01 0.01 79 1009.3
20260901032021 63 238 0.0 0.0 0.01 0.01 0.01 79 1009.4
20260901031523 63 238 0.0 0.0 0.01 0.01 0.01 78 1009.5
20260901031020 63 238 0.0 0.0 0.01 0.01 0.01 78 1009.7
20260901030520 63 238 0.0 0.0 0.01 0.01 0.01 78 1009.5
20260901030020 63 238 0.0 9.0 0.01 0.01 0.01 77 1009.6
20260901025520 64 238 2.0 10.0 0.01 0.01 0.01 76 1009.8
20260901025019 65 233 2.0 10.0 0.00 0.00 0.00 75 1009.8
20260901024519 65 253 2.0 13.0 0.00 0.00 0.00 73 1009.5
20260901024019 66 261 0.0 20.0 0.00 0.00 0.00 70 1009.3
20260901023521 67 264 5.0 24.0 0.00 0.00 0.00 69 1009.7
20260901023019 68 260 9.0 25.0 0.00 0.00 0.00 66 1009.8
20260901022518 70 263 11.0 33.0 0.00 0.00 0.00 63 1009.5
20260901022017 71 288 19.0 44.0 0.00 0.00 0.00 57 1009.4
20260901021525 72 268 22.0 44.0 0.00 0.00 0.00 49 1009.0
20260901021018 73 214 0.0 1.0 0.00 0.00 0.00 44 1008.3
20260901020517 73 164 0.0 0.0 0.00 0.00 0.00 42 1007.8
20260901020016 73 164 0.0 0.0 0.00 0.00 0.00 43 1007.5
20260901015516 73 164 0.0 0.0 0.00 0.00 0.00 42 1007.3
20260901015016 74 164 0.0 0.0 0.00 0.00 0.00 42 1007.1
20260901014516 74 164 0.0 0.0 0.00 0.00 0.00 42 1007.0
20260901014016 74 164 0.0 6.0 0.00 0.00 0.00 41 1006.8
20260901013516 74 164 0.0 6.0 0.00 0.00 0.00 41 1006.8
20260901013016 74 166 0.0 3.0 0.00 0.00 0.00 42 1006.7
20260901012516 75 149 0.0 6.0 0.00 0.00 0.00 42 1006.7
20260901012015 75 149 0.0 13.0 0.00 0.00 0.00 43 1006.6
20260901011516 75 140 3.0 13.0 0.00 0.00 0.00 43 1006.4
20260901011017 75 142 2.0 12.0 0.00 0.00 0.00 43 1006.5
20260901010515 75 141 2.0 12.0 0.00 0.00 0.00 44 1006.5
20260901010022 75 142 4.0 9.0 0.00 0.00 0.00 43 1006.4
20260901005516 75 139 0.0 8.0 0.00 0.00 0.00 42 1006.4
20260901005117 76 139 0.0 6.0 0.00 0.00 0.00 42 1006.6
20260901004513 76 139 0.0 6.0 0.00 0.00 0.00 40 1006.6
20260901004011 76 139 0.0 4.0 0.00 0.00 0.00 39 1006.9
20260901003511 76 139 0.0 4.0 0.00 0.00 0.00 40 1006.9
20260901003017 77 139 0.0 5.0 0.00 0.00 0.00 40 1006.9
20260901002511 77 139 0.0 6.0 0.00 0.00 0.00 39 1007.0
20260901002015 77 139 0.0 13.0 0.00 0.00 0.00 39 1007.0
20260901001510 78 139 4.0 13.0 0.00 0.00 0.00 38 1007.0
20260901001010 78 140 0.0 9.0 0.00 0.00 0.00 39 1007.0
20260901000510 78 140 0.0 11.0 0.00 0.00 0.00 37 1007.0
20260901000009 78 146 0.0 11.0 0.00 0.00 0.00 37 1007.0
20260831235509 78 146 0.0 11.0 0.00 0.00 0.00 37 1007.1
20260831235008 78 143 2.0 9.0 0.00 0.00 0.00 37 1007.1
20260831234508 78 145 2.0 9.0 0.00 0.00 0.00 37 1007.2
20260831234008 79 149 2.0 9.0 0.00 0.00 0.00 36 1007.2
20260831233507 79 152 2.0 9.0 0.00 0.00 0.00 37 1007.1
20260831233007 79 146 0.0 17.0 0.00 0.00 0.00 37 1007.2
20260831232511 79 147 3.0 17.0 0.00 0.00 0.00 36 1007.2
20260831232007 79 142 1.0 11.0 0.00 0.00 0.00 35 1007.3
20260831231512 78 140 2.0 11.0 0.00 0.00 0.00 38 1007.3
20260831231006 78 138 2.0 10.0 0.00 0.00 0.00 38 1007.3
20260831230506 78 139 4.0 13.0 0.00 0.00 0.00 38 1007.3
20260831230008 78 139 5.0 13.0 0.00 0.00 0.00 37 1007.4
20260831225603 79 148 2.0 13.0 0.00 0.01 0.00 36 1007.5
20260831225003 79 140 6.0 12.0 0.00 0.01 0.00 34 1007.6
20260831224503 79 148 1.0 13.0 0.00 0.01 0.00 35 1007.6
20260831224003 80 142 1.0 13.0 0.00 0.01 0.00 36 1007.6
20260831223603 80 142 5.0 13.0 0.00 0.01 0.00 34 1007.7
20260831223000 80 151 1.0 8.0 0.00 0.01 0.00 35 1007.8
20260831222501 80 151 3.0 13.0 0.00 0.01 0.00 34 1007.8
20260831222100 80 146 4.0 13.0 0.00 0.01 0.00 35 1007.9
20260831221601 80 143 5.0 15.0 0.00 0.01 0.00 34 1008.0
20260831221059 79 146 5.0 15.0 0.00 0.01 0.00 33 1008.0
20260831220559 79 158 1.0 10.0 0.00 0.01 0.00 37 1008.0
20260831220059 79 154 0.0 8.0 0.00 0.01 0.00 36 1008.1
20260831215559 79 154 1.0 5.0 0.00 0.01 0.00 36 1008.0
20260831215058 79 154 0.0 4.0 0.00 0.01 0.00 35 1008.1
20260831214608 79 154 0.0 9.0 0.00 0.01 0.00 34 1008.2
20260831214058 79 154 1.0 9.0 0.00 0.01 0.00 34 1008.2
20260831213556 80 156 1.0 10.0 0.00 0.01 0.00 34 1008.3
20260831213058 80 154 3.0 10.0 0.00 0.01 0.00 32 1008.4
20260831212555 81 152 3.0 11.0 0.00 0.01 0.00 32 1008.5
20260831212057 82 153 4.0 17.0 0.00 0.01 0.00 32 1008.4
20260831211556 82 141 4.0 17.0 0.00 0.01 0.00 31 1008.4
20260831211056 82 147 3.0 12.0 0.00 0.01 0.00 32 1008.5
20260831210557 82 150 2.0 9.0 0.00 0.01 0.00 33 1008.6
20260831210052 82 150 0.0 12.0 0.00 0.01 0.00 32 1008.6
20260831205554 82 150 2.0 12.0 0.00 0.01 0.00 32 1008.7
20260831205050 82 156 0.0 6.0 0.00 0.01 0.00 37 1008.7
20260831204549 81 156 2.0 11.0 0.00 0.01 0.00 35 1008.8
20260831204048 81 156 0.0 11.0 0.00 0.01 0.00 34 1009.0
20260831203546 80 166 2.0 10.0 0.00 0.01 0.00 37 1009.1
20260831203046 80 168 0.0 3.0 0.00 0.01 0.00 38 1009.1
20260831202545 79 168 0.0 4.0 0.00 0.01 0.00 36 1009.2
20260831202044 79 168 0.0 5.0 0.00 0.01 0.00 36 1009.3
20260831201544 79 168 0.0 5.0 0.00 0.01 0.00 37 1009.3
20260831201042 79 168 0.0 5.0 0.00 0.01 0.00 36 1009.5
20260831200544 79 168 0.0 7.0 0.00 0.01 0.00 34 1009.5
20260831200050 79 168 1.0 7.0 0.00 0.01 0.00 36 1009.6
20260831195543 78 168 0.0 6.0 0.00 0.01 0.00 38 1009.6
20260831195042 78 168 2.0 6.0 0.00 0.01 0.00 37 1009.7
20260831194608 78 168 0.0 5.0 0.00 0.01 0.00 37 1009.8
20260831194042 78 168 0.0 6.0 0.00 0.01 0.00 36 1009.8
20260831193543 78 168 0.0 4.0 0.00 0.01 0.00 38 1009.8
20260831193042 78 168 0.0 5.0 0.00 0.01 0.00 36 1009.8
20260831192542 79 168 2.0 5.0 0.00 0.01 0.00 38 1009.9
20260831192041 79 168 0.0 5.0 0.00 0.01 0.00 38 1010.0
20260831191541 79 168 0.0 0.0 0.00 0.01 0.00 36 1010.1
20260831191045 79 168 0.0 0.0 0.00 0.01 0.00 35 1010.1
20260831190541 79 168 0.0 3.0 0.00 0.01 0.00 35 1010.1
20260831190142 79 168 0.0 3.0 0.00 0.01 0.00 34 1010.1
20260831185540 79 168 0.0 0.0 0.00 0.01 0.00 35 1010.2
20260831185040 79 168 0.0 0.0 0.00 0.01 0.00 36 1010.3
20260831184539 79 168 0.0 9.0 0.00 0.01 0.00 34 1010.4
20260831184039 79 168 1.0 9.0 0.00 0.01 0.00 36 1010.4
20260831183538 79 185 0.0 0.0 0.00 0.01 0.00 34 1010.5
20260831183037 79 186 0.0 0.0 0.00 0.01 0.00 40 1010.6
20260831182536 78 185 0.0 0.0 0.00 0.01 0.00 38 1010.6
20260831182036 78 186 0.0 0.0 0.00 0.01 0.00 33 1010.6
20260831181536 78 186 0.0 0.0 0.00 0.01 0.00 37 1010.7
20260831181034 78 186 0.0 0.0 0.00 0.01 0.00 38 1010.7
20260831180535 78 185 0.0 0.0 0.00 0.01 0.00 37 1010.7
20260831180035 78 186 0.0 0.0 0.00 0.01 0.00 39 1010.8
20260831175533 78 186 0.0 0.0 0.00 0.01 0.00 37 1010.8
20260831175032 78 186 0.0 0.0 0.00 0.01 0.00 38 1010.9
20260831174533 78 186 0.0 0.0 0.00 0.01 0.00 37 1010.9
20260831174031 78 186 0.0 0.0 0.00 0.01 0.00 37 1010.9
20260831173535 78 186 0.0 0.0 0.00 0.01 0.00 37 1011.0
20260831173031 78 186 0.0 0.0 0.00 0.01 0.00 38 1011.0
20260831172532 78 186 0.0 0.0 0.00 0.01 0.00 36 1011.0
20260831172031 78 186 0.0 0.0 0.00 0.01 0.00 36 1011.1
20260831171531 78 186 0.0 0.0 0.00 0.01 0.00 37 1011.1
20260831171030 78 185 0.0 0.0 0.00 0.01 0.00 35 1011.2
20260831170531 78 186 0.0 0.0 0.00 0.01 0.00 37 1011.2
20260831170039 78 186 0.0 0.0 0.00 0.01 0.00 33 1011.2
20260831165533 77 186 0.0 0.0 0.00 0.01 0.00 36 1011.2
20260831165028 77 185 0.0 0.0 0.00 0.01 0.00 37 1011.2
20260831164529 77 185 0.0 0.0 0.00 0.01 0.00 40 1011.2
20260831164030 77 186 0.0 0.0 0.00 0.01 0.00 36 1011.2
20260831163526 77 185 0.0 0.0 0.00 0.01 0.00 36 1011.2
20260831163025 77 186 0.0 0.0 0.00 0.01 0.00 39 1011.2
20260831162524 77 186 0.0 0.0 0.00 0.01 0.00 42 1011.1
20260831162023 76 185 0.0 0.0 0.00 0.01 0.00 43 1011.1
20260831161523 76 186 0.0 0.0 0.00 0.01 0.00 44 1011.1
20260831161023 76 185 0.0 0.0 0.00 0.01 0.00 38 1011.0
20260831160521 76 185 0.0 0.0 0.00 0.01 0.00 35 1011.0
20260831160019 75 185 0.0 0.0 0.00 0.01 0.00 43 1011.0
20260831155518 75 185 0.0 0.0 0.00 0.01 0.00 44 1011.1
20260831155016 75 185 0.0 0.0 0.00 0.01 0.00 45 1011.0
20260831154528 75 185 0.0 0.0 0.00 0.01 0.00 46 1011.0
20260831154018 74 185 0.0 0.0 0.00 0.01 0.00 50 1011.0
20260831153513 74 185 0.0 0.0 0.00 0.01 0.00 46 1011.0
20260831153013 74 185 0.0 0.0 0.00 0.01 0.00 46 1011.0
20260831152512 74 185 0.0 0.0 0.00 0.01 0.00 45 1011.0
20260831152015 74 185 0.0 0.0 0.00 0.01 0.00 48 1011.1
20260831151511 73 185 0.0 0.0 0.00 0.01 0.00 47 1011.1
20260831151009 73 185 0.0 0.0 0.00 0.01 0.00 48 1011.1
20260831150509 73 185 0.0 0.0 0.00 0.01 0.00 48 1011.1
20260831150007 72 185 0.0 0.0 0.00 0.01 0.00 51 1011.1
20260831145505 72 185 0.0 0.0 0.00 0.01 0.00 51 1011.2
20260831145003 71 185 0.0 0.0 0.00 0.01 0.00 52 1011.0
20260831144502 71 185 0.0 0.0 0.00 0.01 0.00 53 1011.0
20260831144001 70 185 0.0 0.0 0.00 0.01 0.00 51 1011.0
20260831143600 70 185 0.0 0.0 0.00 0.01 0.00 51 1010.9
20260831143059 69 185 0.0 0.0 0.00 0.01 0.00 50 1011.0
20260831142557 69 185 0.0 0.0 0.00 0.01 0.00 54 1011.0
20260831142055 68 185 0.0 0.0 0.00 0.01 0.00 53 1011.0
20260831141555 68 185 0.0 0.0 0.00 0.01 0.00 54 1011.0
20260831141053 67 185 0.0 0.0 0.00 0.01 0.00 59 1011.0
20260831140552 66 185 0.0 0.0 0.00 0.01 0.00 57 1011.0
20260831140055 66 185 0.0 0.0 0.00 0.01 0.00 57 1010.9
20260831135547 65 185 0.0 0.0 0.00 0.01 0.00 59 1010.8
20260831135048 64 185 0.0 0.0 0.00 0.01 0.00 61 1010.6
20260831134545 63 185 0.0 0.0 0.00 0.01 0.00 64 1010.6
20260831134043 61 185 0.0 0.0 0.00 0.01 0.00 67 1010.5
20260831133541 60 185 0.0 0.0 0.00 0.01 0.00 69 1010.4
20260831133042 59 185 0.0 0.0 0.00 0.01 0.00 71 1010.5
20260831132538 58 185 0.0 0.0 0.00 0.01 0.00 75 1010.5
20260831132038 57 185 0.0 0.0 0.00 0.01 0.00 75 1010.5
20260831131536 57 185 0.0 0.0 0.00 0.01 0.00 73 1010.4
20260831131135 56 185 0.0 0.0 0.00 0.01 0.00 74 1010.4
20260831130536 56 185 0.0 0.0 0.00 0.01 0.00 72 1010.2
20260831130040 55 185 0.0 0.0 0.00 0.01 0.00 73 1010.1
20260831125533 55 185 0.0 0.0 0.00 0.01 0.00 73 1010.0
20260831125031 55 185 0.0 0.0 0.00 0.01 0.00 74 1010.0
20260831124531 55 185 0.0 0.0 0.00 0.01 0.00 74 1010.0
20260831124030 55 185 0.0 0.0 0.00 0.01 0.00 74 1009.9
20260831123530 55 185 0.0 0.0 0.00 0.01 0.00 74 1009.8
20260831123036 55 185 0.0 0.0 0.00 0.01 0.00 74 1009.8
20260831122530 55 185 0.0 0.0 0.00 0.01 0.00 75 1009.7
20260831122034 56 185 0.0 0.0 0.00 0.01 0.00 74 1009.7
20260831121539 56 185 0.0 0.0 0.00 0.01 0.00 74 1009.6
20260831121029 56 185 0.0 0.0 0.00 0.01 0.00 73 1009.8
20260831120527 56 185 0.0 0.0 0.00 0.01 0.00 74 1009.6
20260831120028 56 185 0.0 0.0 0.00 0.01 0.00 74 1009.6
20260831115529 56 185 0.0 0.0 0.00 0.01 0.00 74 1009.5
20260831115027 56 185 0.0 0.0 0.00 0.01 0.00 74 1009.4
20260831114527 56 185 0.0 0.0 0.00 0.01 0.00 74 1009.5
20260831114028 56 185 0.0 0.0 0.00 0.01 0.00 73 1009.4
20260831113529 56 185 0.0 0.0 0.00 0.01 0.00 74 1009.4
20260831113025 56 185 0.0 0.0 0.00 0.01 0.00 73 1009.4
20260831112528 56 185 0.0 0.0 0.00 0.01 0.00 73 1009.4
20260831112025 57 185 0.0 0.0 0.00 0.01 0.00 73 1009.4
20260831111524 57 185 0.0 0.0 0.00 0.01 0.00 72 1009.3
20260831111024 57 185 0.0 0.0 0.00 0.01 0.00 72 1009.2
20260831110524 57 185 0.0 0.0 0.00 0.01 0.00 72 1009.2
20260831110024 57 185 0.0 0.0 0.00 0.01 0.00 72 1009.1
20260831105526 57 185 0.0 0.0 0.00 0.01 0.00 72 1009.1
20260831105021 57 185 0.0 0.0 0.00 0.01 0.00 71 1009.2
20260831104524 57 185 0.0 0.0 0.00 0.01 0.00 71 1009.1
20260831104020 58 185 0.0 0.0 0.00 0.01 0.00 71 1009.1
20260831103521 58 185 0.0 0.0 0.00 0.01 0.00 71 1009.1
20260831103020 58 185 0.0 0.0 0.00 0.01 0.00 70 1009.2
20260831102521 58 185 0.0 0.0 0.00 0.01 0.00 70 1009.1
20260831102022 58 185 0.0 0.0 0.00 0.01 0.00 70 1009.0
20260831101517 58 185 0.0 0.0 0.00 0.01 0.00 69 1009.0
20260831101018 59 185 0.0 0.0 0.00 0.01 0.00 69 1009.0
20260831100517 59 185 0.0 0.0 0.00 0.01 0.00 69 1008.9
20260831100023 59 185 0.0 0.0 0.00 0.01 0.00 69 1008.9
20260831095515 59 185 0.0 0.0 0.00 0.01 0.00 69 1008.9
20260831095015 59 185 0.0 0.0 0.00 0.01 0.00 69 1009.0
20260831094515 59 185 0.0 0.0 0.00 0.01 0.00 69 1008.9
20260831094017 59 185 0.0 0.0 0.00 0.01 0.00 68 1008.9
20260831093514 59 185 0.0 0.0 0.00 0.01 0.00 69 1008.9
20260831093016 59 185 0.0 0.0 0.00 0.01 0.00 69 1009.0
20260831092517 59 185 0.0 0.0 0.00 0.01 0.00 69 1008.9
20260831092012 59 185 0.0 0.0 0.00 0.01 0.00 69 1008.9
20260831091512 59 185 0.0 0.0 0.00 0.01 0.00 69 1008.9
20260831091013 59 185 0.0 0.0 0.00 0.01 0.00 69 1008.7
20260831090513 59 185 0.0 0.0 0.00 0.01 0.00 69 1008.7
20260831090012 59 185 0.0 0.0 0.00 0.01 0.00 69 1008.7
20260831085511 59 185 0.0 0.0 0.00 0.01 0.00 70 1008.7
20260831085011 59 185 0.0 0.0 0.00 0.01 0.00 70 1008.8
20260831084510 59 185 0.0 0.0 0.00 0.01 0.00 70 1008.9
20260831084009 59 185 0.0 0.0 0.00 0.01 0.00 71 1008.9
20260831083508 59 185 0.0 0.0 0.00 0.01 0.00 70 1009.0
20260831083014 59 185 0.0 0.0 0.00 0.01 0.00 70 1009.0
20260831082508 59 185 0.0 0.0 0.00 0.01 0.00 69 1009.0
20260831082007 59 185 0.0 0.0 0.00 0.01 0.00 69 1009.0
20260831081507 59 185 0.0 0.0 0.00 0.01 0.00 69 1009.0
20260831081006 60 185 0.0 0.0 0.00 0.01 0.00 69 1009.1